• In Czech Republic
  • List of Countries
  • For 7 days
  • Water Temperature
  • Satellite Maps
  • Weather Map
  • Weather Widgets
  • user-avatar
    Login

    Hourly Weather Lincoln

    Today, 13 December, Wednesday

    Time Temperature Precipitation Wind Pressure Humidity
    00:00 0°C° 0 mm 8 mps 745 mmHg 93%
    01:00 +2°C° 0 mm 7 mps 744 mmHg 93%
    02:00 +2°C° 0 mm 6 mps 744 mmHg 94%
    03:00 +2°C° 0 mm 5 mps 743 mmHg 95%
    04:00 +2°C° 0 mm 5 mps 743 mmHg 95%
    05:00 +1°C° 0 mm 5 mps 743 mmHg 94%
    06:00 +1°C° 0 mm 5 mps 743 mmHg 94%
    07:00 +1°C° 0.2 mm 5 mps 742 mmHg 93%
    08:00 +2°C° 0.2 mm 6 mps 742 mmHg 93%
    09:00 +2°C° 0.2 mm 6 mps 741 mmHg 92%
    10:00 +3°C° 0.1 mm 7 mps 740 mmHg 91%
    11:00 +3°C° 0.1 mm 7 mps 739 mmHg 90%
    12:00 +4°C° 0.1 mm 8 mps 738 mmHg 88%
    13:00 +4°C° 0.7 mm 8 mps 737 mmHg 85%
    14:00 +3°C° 0.7 mm 9 mps 736 mmHg 82%
    15:00 +3°C° 0.7 mm 9 mps 735 mmHg 79%
    16:00 +2°C° 0 mm 8 mps 735 mmHg 76%
    17:00 +1°C° 0 mm 8 mps 736 mmHg 74%
    18:00 0°C° 0 mm 8 mps 736 mmHg 71%
    19:00 0°C° 0 mm 8 mps 735 mmHg 73%
    20:00 0°C° 0 mm 7 mps 735 mmHg 74%
    21:00 0°C° 0 mm 7 mps 735 mmHg 75%
    22:00 -1°C° 0 mm 7 mps 736 mmHg 73%
    23:00 -1°C° 0 mm 8 mps 736 mmHg 71%

    Tomorrow, 14 December, Thursday

    Time Temperature Precipitation Wind Pressure Humidity
    00:00 -1°C° 0 mm 8 mps 736 mmHg 69%
    01:00 -1°C° 0 mm 8 mps 737 mmHg 70%
    02:00 -1°C° 0 mm 8 mps 737 mmHg 71%
    03:00 -1°C° 0 mm 8 mps 737 mmHg 72%
    04:00 -1°C° 0 mm 8 mps 737 mmHg 72%
    05:00 0°C° 0 mm 8 mps 737 mmHg 72%
    06:00 0°C° 0 mm 8 mps 737 mmHg 73%
    07:00 0°C° 0 mm 8 mps 737 mmHg 73%
    08:00 0°C° 0 mm 8 mps 737 mmHg 74%
    09:00 0°C° 0 mm 8 mps 737 mmHg 74%
    10:00 0°C° 0 mm 7 mps 736 mmHg 72%
    11:00 +2°C° 0 mm 7 mps 736 mmHg 71%
    12:00 +2°C° 0 mm 7 mps 736 mmHg 69%
    13:00 +2°C° 0 mm 7 mps 736 mmHg 71%
    14:00 +1°C° 0 mm 6 mps 736 mmHg 73%
    15:00 +1°C° 0 mm 6 mps 736 mmHg 74%
    16:00 +1°C° 0.1 mm 5 mps 735 mmHg 77%
    17:00 0°C° 0.1 mm 5 mps 735 mmHg 79%
    18:00 0°C° 0.1 mm 5 mps 735 mmHg 81%
    19:00 0°C° 0.3 mm 5 mps 735 mmHg 82%
    20:00 0°C° 0.3 mm 5 mps 735 mmHg 83%
    21:00 0°C° 0.3 mm 5 mps 735 mmHg 84%
    22:00 0°C° 0.1 mm 4 mps 735 mmHg 86%
    23:00 0°C° 0.1 mm 4 mps 735 mmHg 88%

    Day after tomorrow, 15 December, Friday

    Time Temperature Precipitation Wind Pressure Humidity
    00:00 0°C° 0.1 mm 3 mps 735 mmHg 91%
    01:00 0°C° 0 mm 3 mps 736 mmHg 91%
    02:00 0°C° 0 mm 3 mps 737 mmHg 91%
    03:00 0°C° 0 mm 3 mps 737 mmHg 91%
    04:00 -1°C° 0 mm 4 mps 738 mmHg 91%
    05:00 -1°C° 0 mm 4 mps 739 mmHg 91%
    06:00 -1°C° 0 mm 5 mps 740 mmHg 90%
    07:00 0°C° 0 mm 5 mps 741 mmHg 90%
    08:00 0°C° 0 mm 5 mps 742 mmHg 89%
    09:00 0°C° 0 mm 5 mps 744 mmHg 88%
    10:00 +1°C° 0 mm 6 mps 744 mmHg 85%
    11:00 +2°C° 0 mm 6 mps 745 mmHg 81%
    12:00 +3°C° 0 mm 6 mps 746 mmHg 78%
    13:00 +2°C° 0 mm 6 mps 746 mmHg 78%
    14:00 +2°C° 0 mm 6 mps 747 mmHg 78%
    15:00 +1°C° 0 mm 6 mps 747 mmHg 78%
    16:00 +1°C° 0 mm 6 mps 748 mmHg 78%
    17:00 -1°C° 0 mm 6 mps 748 mmHg 78%
    18:00 -2°C° 0 mm 6 mps 749 mmHg 78%
    19:00 -2°C° 0 mm 6 mps 749 mmHg 77%
    20:00 -2°C° 0 mm 6 mps 750 mmHg 77%
    21:00 -2°C° 0 mm 6 mps 751 mmHg 76%
    22:00 -3°C° 0 mm 6 mps 751 mmHg 76%
    23:00 -3°C° 0 mm 6 mps 751 mmHg 77%

    16 December, Saturday

    Time Temperature Precipitation Wind Pressure Humidity
    00:00 -3°C° 0 mm 6 mps 751 mmHg 77%
    01:00 -3°C° 0 mm 6 mps 752 mmHg 77%
    02:00 -3°C° 0 mm 6 mps 752 mmHg 77%
    03:00 -3°C° 0 mm 6 mps 752 mmHg 76%
    04:00 -3°C° 0 mm 6 mps 753 mmHg 76%
    05:00 -3°C° 0 mm 6 mps 753 mmHg 76%
    06:00 -3°C° 0 mm 6 mps 754 mmHg 76%
    07:00 -3°C° 0 mm 6 mps 754 mmHg 75%
    08:00 -3°C° 0 mm 6 mps 755 mmHg 75%
    09:00 -3°C° 0 mm 6 mps 756 mmHg 75%
    10:00 -2°C° 0 mm 6 mps 756 mmHg 72%
    11:00 -1°C° 0 mm 6 mps 757 mmHg 69%
    12:00 +1°C° 0 mm 6 mps 757 mmHg 66%
    13:00 +1°C° 0 mm 5 mps 758 mmHg 68%
    14:00 0°C° 0 mm 5 mps 758 mmHg 69%
    15:00 0°C° 0 mm 4 mps 758 mmHg 70%
    16:00 0°C° 0.1 mm 4 mps 759 mmHg 73%
    17:00 +1°C° 0.1 mm 3 mps 759 mmHg 75%
    18:00 +1°C° 0.1 mm 3 mps 760 mmHg 77%
    19:00 +1°C° 0.3 mm 3 mps 760 mmHg 79%
    20:00 +2°C° 0.3 mm 2 mps 761 mmHg 81%
    21:00 +2°C° 0.3 mm 2 mps 761 mmHg 83%
    22:00 +2°C° 0 mm 2 mps 761 mmHg 85%
    23:00 +1°C° 0 mm 2 mps 762 mmHg 88%

    17 December, Sunday

    Time Temperature Precipitation Wind Pressure Humidity
    00:00 +1°C° 0 mm 2 mps 762 mmHg 90%
    01:00 +1°C° 0 mm 2 mps 762 mmHg 91%
    02:00 +2°C° 0 mm 1 mps 762 mmHg 91%
    03:00 +2°C° 0 mm 1 mps 762 mmHg 91%
    04:00 +2°C° 0 mm 1 mps 762 mmHg 92%
    05:00 +1°C° 0 mm 2 mps 763 mmHg 92%
    06:00 +1°C° 0 mm 2 mps 763 mmHg 92%
    07:00 +1°C° 0 mm 2 mps 763 mmHg 92%
    08:00 +1°C° 0 mm 2 mps 763 mmHg 92%
    09:00 +1°C° 0 mm 2 mps 763 mmHg 92%
    10:00 +1°C° 0 mm 3 mps 763 mmHg 90%
    11:00 +2°C° 0 mm 3 mps 763 mmHg 88%
    12:00 +3°C° 0 mm 4 mps 763 mmHg 86%
    13:00 +3°C° 0 mm 4 mps 763 mmHg 88%
    14:00 +3°C° 0 mm 4 mps 762 mmHg 90%
    15:00 +2°C° 0 mm 5 mps 762 mmHg 92%
    16:00 +2°C° 0 mm 5 mps 761 mmHg 92%
    17:00 +2°C° 0 mm 5 mps 761 mmHg 93%
    18:00 +3°C° 0 mm 6 mps 761 mmHg 93%
    19:00 +3°C° 0.4 mm 6 mps 760 mmHg 93%
    20:00 +4°C° 0.4 mm 7 mps 760 mmHg 92%
    21:00 +4°C° 0.4 mm 7 mps 759 mmHg 92%
    22:00 +5°C° 0.2 mm 7 mps 759 mmHg 92%
    23:00 +6°C° 0.2 mm 7 mps 759 mmHg 92%

    18 December, Monday

    Time Temperature Precipitation Wind Pressure Humidity
    00:00 +6°C° 0.2 mm 7 mps 758 mmHg 92%
    01:00 +7°C° 0.1 mm 6 mps 759 mmHg 92%
    02:00 +7°C° 0.1 mm 6 mps 759 mmHg 92%
    03:00 +7°C° 0.1 mm 5 mps 759 mmHg 92%
    04:00 +6°C° 0 mm 5 mps 760 mmHg 91%
    05:00 +5°C° 0 mm 5 mps 761 mmHg 91%
    06:00 +5°C° 0 mm 5 mps 761 mmHg 91%
    07:00 +4°C° 0 mm 4 mps 762 mmHg 91%
    08:00 +4°C° 0 mm 4 mps 763 mmHg 91%
    09:00 +4°C° 0 mm 4 mps 763 mmHg 91%
    10:00 +4°C° 0 mm 4 mps 764 mmHg 88%
    11:00 +5°C° 0 mm 4 mps 764 mmHg 85%
    12:00 +6°C° 0 mm 4 mps 764 mmHg 82%
    13:00 +5°C° 0 mm 3 mps 765 mmHg 84%
    14:00 +5°C° 0 mm 3 mps 765 mmHg 85%
    15:00 +5°C° 0 mm 2 mps 765 mmHg 87%
    16:00 +5°C° 0 mm 2 mps 766 mmHg 87%
    17:00 +4°C° 0 mm 2 mps 766 mmHg 88%
    18:00 +4°C° 0 mm 2 mps 767 mmHg 88%
    19:00 +4°C° 0 mm 2 mps 767 mmHg 88%
    20:00 +5°C° 0 mm 1 mps 767 mmHg 88%
    21:00 +4°C° 0 mm 1 mps 768 mmHg 87%
    22:00 +3°C° 0 mm 2 mps 768 mmHg 88%
    23:00 +3°C° 0 mm 2 mps 768 mmHg 88%
    Show more